This is the latest recevied weather packets stored in our database for station/object IK1QAD-3. If no packets are shown the sender has not sent any weather packets the latest 10 day(s).
| Time | Temp. | Humidity | Pressure | Rain* | Wind** | Luminosity | Snow |
|---|---|---|---|---|---|---|---|
| 1777956806 | 12.78° C | 96% | 1010.3 hPa | 4.06 mm | - | - | - |
| 1777956522 | 12.78° C | 96% | 1010.3 hPa | 6.1 mm | - | - | - |
| 1777956223 | 12.78° C | 96% | 1010.3 hPa | 7.87 mm | - | - | - |
| 1777955922 | 12.78° C | 96% | 1010.3 hPa | 9.91 mm | - | - | - |
| 1777955617 | 12.78° C | 96% | 1010.3 hPa | 13.97 mm | - | - | - |
| 1777955315 | 12.78° C | 96% | 1010.2 hPa | 17.02 mm | - | - | - |
| 1777955010 | 12.78° C | 96% | 1010.3 hPa | 21.08 mm | - | - | - |
| 1777954707 | 12.78° C | 96% | 1010.6 hPa | 23.11 mm | - | - | - |
| 1777954405 | 12.78° C | 96% | 1010.4 hPa | 24.89 mm | - | - | - |
| 1777954118 | 12.78° C | 96% | 1010.4 hPa | 26.92 mm | - | - | - |
| 1777953813 | 12.78° C | 96% | 1010.5 hPa | 30.99 mm | - | - | - |
| 1777953506 | 12.78° C | 96% | 1010.5 hPa | 35.05 mm | - | - | - |
| 1777953223 | 12.78° C | 96% | 1010.8 hPa | 36.07 mm | - | - | - |
| 1777952919 | 12.78° C | 95% | 1011.4 hPa | 35.05 mm | - | - | - |
| 1777952609 | 12.78° C | 95% | 1011.7 hPa | 38.1 mm | - | - | - |
| 1777952307 | 12.78° C | 95% | 1011.7 hPa | 38.1 mm | - | - | - |
| 1777952021 | 12.78° C | 95% | 1011.7 hPa | 36.07 mm | - | - | - |
| 1777951720 | 12.78° C | 95% | 1011.7 hPa | 34.04 mm | - | - | - |
| 1777951420 | 12.78° C | 95% | 1011.9 hPa | 34.04 mm | - | - | - |
| 1777951113 | 12.78° C | 94% | 1012.3 hPa | 35.05 mm | - | - | - |
| 1777950811 | 12.78° C | 94% | 1012.3 hPa | 34.04 mm | - | - | - |
| 1777950523 | 12.78° C | 94% | 1012.3 hPa | 33.02 mm | - | - | - |
| 1777950206 | 12.78° C | 95% | 1012.3 hPa | 33.02 mm | - | - | - |
| 1777949922 | 12.78° C | 94% | 1012.1 hPa | 32 mm | - | - | - |
| 1777949612 | 12.78° C | 94% | 1011.9 hPa | 30.99 mm | - | - | - |
* Rain latest hour (hover to see other rain measurements)
** Current wind speed in m/s (hover to see current wind gust speed)